Regional Weather Roundup
Issued by NWS Burlington, VT

Home | Current Version | Previous Version | Text Only | Print | Product List | Glossary On
Versions: 1 2 3 4 5 6 7 8 9 10 11 12 13 14 15 16 17 18 19 20 21 22 23 24 25 26 27 28 29 30 31 32 33 34 35 36 37 38 39 40 41 42 43 44 45 46 47 48 49 50
000
ASUS41 KBTV 111730
RWRBTV
VERMONT REGIONAL WEATHER ROUNDUP
NATIONAL WEATHER SERVICE BURLINGTON VT
1200 PM EST MON DEC 11 2017

NOTE: "FAIR" INDICATES FEW OR NO CLOUDS BELOW 12,000 FEET WITH NO
SIGNIFICANT WEATHER AND/OR OBSTRUCTIONS TO VISIBILITY.

* THESE REPORTS ARE NOT UNDER NWS QUALITY CONTROL AND/OR DO NOT
  REPORT WEATHER SUCH AS PRECIPITATION AND FOG.

VTZ001>019-111800-
_____VERMONT_____


CITY           SKY/WX    TMP DP  RH WIND       PRES   REMARKS
BURLINGTON     LGT SNOW  21  13  71 N9        30.00F WCI  11
MONTPELIER     FLURRIES  21  16  81 N7        29.94F WCI  12
MORRISVILLE    CLOUDY    17  11  77 NE7       29.96F WCI   8
ST. JOHNSBURY*   N/A     25  17  72 MISG      29.91F
LYNDONVILLE*   FAIR      22  13  68 W8G16     29.91F WCI  12
MIDDLEBURY*    FAIR      26  17  69 N7        29.96F WCI  18
RUTLAND*       LGT SNOW  26  21  81 N8G17     29.93S WCI  18
SPRINGFIELD    CLOUDY    32  19  58 W7        29.93F WCI  26
HIGHGATE*      FAIR      17   8  65 N9        30.04S WCI   6
NEWPORT*       LGT SNOW  17  11  80 NW7       29.95S WCI   7
BENNINGTON     CLOUDY    32  19  58 W9G16     29.94F WCI  24

_____LAKE CHAMPLAIN_____


CITY           SKY/WX    TMP DP  RH WIND       PRES   REMARKS
BURTON ISLAND*   N/A     21  14  73 MISG        N/A
COLCHESTER RF*   N/A     21  14  73 NE17        N/A  WCI   7
DIAMOND ISL*     N/A     25  19  80 N14         N/A  WCI  13

$$

NYZ007-026>031-035-052-083-087-111800-
_____NORTHERN NEW YORK_____


CITY           SKY/WX    TMP DP  RH WIND       PRES   REMARKS
PLATTSBURGH    PTSUNNY   22   9  57 NE10      30.01F WCI  11
SARANAC LAKE   CLOUDY    16  10  77 W7        29.88F WCI   6
MASSENA        SUNNY     18   3  52 W9        30.07F WCI   7
OGDENSBURG*    FAIR      20   5  51 CALM      30.04F
WATERTOWN      CLOUDY    19   8  62 NW6       30.04F WCI  11
FT DRUM        CLOUDY    15   8  73 S3        30.00F
ALBANY         FLURRIES  33  21  61 W8        29.98F WCI  26
GLENS FALLS    CLOUDY    31  23  72 N7        29.95F WCI  24

$$
NHZ002-005-011-111800-
_____NEW HAMPSHIRE_____


CITY           SKY/WX    TMP DP  RH WIND       PRES   REMARKS
LEBANON        CLOUDY    33  21  61 W8        29.90F WCI  26
KEENE          PTSUNNY   36  19  50 W9G17     29.94F WCI  29
MT WASHINGTON  SNOW       5   5 100 W38         N/A  VSB 0   WCI -21
PLYMOUTH       FLURRIES  32  22  67 SW8G16    29.90F WCI  25
WHITEFIELD     CLOUDY    25  18  74 NW7       29.88F WCI  17

$$

_____REGIONAL QUEBEC LOCATIONS_____


CITY           SKY/WX    TMP DP  RH WIND       PRES   REMARKS
MONTREAL       MOSUNNY   14   0  52 VRB5      30.06S WCI   6
QUEBEC CITY    MOSUNNY   10   3  72 SW14      29.99R WCI  -5
SHERBROOKE     FLURRIES  14   7  73 W8        29.96S WCI   3

_____REGIONAL ONTARIO LOCATIONS_____


CITY           SKY/WX    TMP DP  RH WIND       PRES   REMARKS
OTTAWA         MOSUNNY   10   1  67 NW8       30.05F WCI  -1

______KEY______
VSB  - VISIBILITY IN MILES
WCI  - WIND CHILL INDEX
HX   - HEAT INDEX
$$
NNNN



USA.gov is the U.S. government's official web portal to all federal, state and local government web resources and services.